Location: San Antonio
(29.4240°N, 98.4930°W)
Time: 07:02:50
(UTC-05:00)

Transit 2A Rocket - All Passes

Search period start: 19 July 2024 00:00
Search period end: 29 July 2024 00:00
Orbit: 582 x 910 km, 66.7° (Epoch: 18 July)

Date Brightness Start Highest point End Pass type
(mag) Time Alt. Az. Time Alt. Az. Time Alt. Az.
19 Jul - 00:19:13 10° NNW 00:25:08 55° ENE 00:30:43 10° SE visible
19 Jul - 02:03:25 10° WNW 02:07:03 17° WSW 02:10:34 10° SW visible
19 Jul - 13:07:25 10° ESE 13:09:16 12° ESE 13:11:11 10° E daylight
19 Jul - 14:45:54 10° SW 14:50:57 61° WNW 14:56:33 10° NNE daylight
19 Jul - 23:35:32 10° N 23:40:49 30° ENE 23:45:50 10° ESE visible
20 Jul - 01:18:01 10° NW 01:23:15 32° WSW 01:28:12 10° SSW visible
20 Jul - 14:01:48 10° SSW 14:06:51 69° ESE 14:12:26 10° NNE daylight
20 Jul - 15:47:13 10° W 15:49:58 14° NW 15:52:50 10° NNW daylight
20 Jul - 22:52:24 10° NNE 22:56:20 18° NE 23:00:09 10° E visible
21 Jul - 00:33:23 10° NNW 00:39:19 62° WSW 00:44:52 10° S visible
21 Jul - 13:18:21 10° S 13:22:55 34° ESE 13:27:53 10° NE daylight
21 Jul - 15:01:08 10° WSW 15:05:25 25° NW 15:10:03 10° N daylight
21 Jul - 23:49:12 10° NNW 23:55:13 72° ENE 00:00:53 10° SSE visible
22 Jul - 01:34:52 10° W 01:36:56 12° WSW 01:38:57 10° WSW visible
22 Jul - 12:35:51 10° SE 12:39:07 17° ESE 12:42:34 10° ENE daylight
22 Jul - 14:16:06 10° SW 14:21:03 45° WNW 14:26:30 10° NNE daylight
22 Jul - 23:05:21 10° N 23:10:58 39° ENE 23:16:18 10° SE visible
23 Jul - 00:48:32 10° NW 00:53:10 24° WSW 00:57:35 10° SSW visible
23 Jul - 13:31:42 10° SSW 13:36:51 88° WNW 13:42:33 10° NNE daylight
23 Jul - 15:19:09 10° WNW 15:20:15 11° NW 15:21:22 10° NW daylight
23 Jul - 22:21:55 10° N 22:26:33 23° NE 22:31:01 10° ESE visible
24 Jul - 00:03:37 10° NW 00:09:18 46° WSW 00:14:36 10° S visible
24 Jul - 12:47:56 10° S 12:52:50 47° ESE 12:58:12 10° NE daylight
24 Jul - 14:31:49 10° W 14:35:37 19° NW 14:39:38 10° N daylight
24 Jul - 21:39:22 10° NNE 21:41:58 13° NE 21:44:31 10° ENE visible
24 Jul - 23:19:14 10° NNW 23:25:16 86° WSW 23:30:53 10° SSE visible
25 Jul - 12:04:55 10° SSE 12:08:58 24° ESE 12:13:19 10° NE daylight
25 Jul - 13:46:24 10° SW 13:51:09 34° WNW 13:56:21 10° N daylight
25 Jul - 22:35:13 10° NNW 22:41:05 52° ENE 22:46:34 10° SE visible
26 Jul - 00:19:16 10° WNW 00:23:02 18° WSW 00:26:39 10° SW visible
26 Jul - 11:23:36 10° ESE 11:25:13 11° E 11:26:52 10° E daylight
26 Jul - 13:01:43 10° SW 13:06:52 65° WNW 13:12:33 10° NNE daylight
26 Jul - 21:51:34 10° N 21:56:44 29° ENE 22:01:37 10° ESE visible
26 Jul - 23:33:56 10° NW 23:39:12 34° WSW 23:44:10 10° S visible
27 Jul - 12:17:39 10° SSW 12:22:45 65° ESE 12:28:23 10° NNE daylight
27 Jul - 14:02:46 10° W 14:05:49 15° NW 14:09:00 10° NNW daylight
27 Jul - 21:08:29 10° NNE 21:12:12 17° NE 21:15:48 10° E visible
27 Jul - 22:49:19 10° NNW 22:55:15 65° WSW 23:00:45 10° SSE visible
28 Jul - 11:34:13 10° S 11:38:49 32° ESE 11:43:46 10° NE daylight
28 Jul - 13:16:49 10° WSW 13:21:16 27° WNW 13:26:04 10° N daylight
28 Jul - 22:05:08 10° NNW 22:11:07 69° ENE 22:16:41 10° SSE visible
28 Jul - 23:50:31 10° WNW 23:52:50 12° WSW 23:55:06 10° SW visible
